FW0014 Weather Reports


time (UTC)temp
C
wind
direction
speed
KPH
gust
KPH
rain 1hr
cm
rain 24hr
cm
rain mn
cm
humidity
%
barometer
mb
20260904104052 25 164 6.4 9.7 0.00 0.00 0.00 83 1012.1
20260904103817 25 164 6.4 9.7 0.00 0.00 0.00 83 1014.9
20260904103547 25 177 4.8 9.7 0.00 0.00 0.00 83 1012.0
20260904103315 25 154 8.0 11.3 0.00 0.00 0.00 83 1014.9
20260904103038 25 181 6.4 11.3 0.00 0.00 0.00 83 1011.7
20260904102851 25 177 6.4 11.3 0.00 0.00 0.00 83 1014.8
20260904102504 25 168 8.0 9.7 0.00 0.00 0.00 83 1011.8
20260904102329 25 169 6.4 12.9 0.00 0.00 0.00 83 1014.8
20260904102056 25 194 4.8 11.3 0.00 0.00 0.00 83 1011.9
20260904101825 25 154 8.0 12.9 0.00 0.00 0.00 83 1014.8
20260904101549 25 137 6.4 12.9 0.00 0.00 0.00 83 1011.9
20260904101322 25 139 4.8 12.9 0.00 0.00 0.00 83 1014.9
20260904101039 25 149 6.4 14.5 0.00 0.00 0.00 83 1011.9
20260904100818 25 143 8.0 14.5 0.00 0.00 0.00 83 1014.9
20260904100530 25 147 6.4 14.5 0.00 0.00 0.00 83 1011.9
20260904100335 25 149 11.3 14.5 0.00 0.00 0.00 83 1014.8
20260904100104 25 146 6.4 11.3 0.00 0.00 0.00 82 1011.8
20260904095851 25 159 6.4 11.3 0.00 0.00 0.00 82 1014.8
20260904095527 25 176 6.4 11.3 0.00 0.00 0.00 82 1011.8
20260904095326 25 175 9.7 12.9 0.00 0.00 0.00 82 1014.8
20260904095020 25 176 6.4 12.9 0.00 0.00 0.00 82 1011.9
20260904094821 25 167 8.0 11.3 0.00 0.00 0.00 82 1014.8
20260904094502 25 169 6.4 12.9 0.00 0.00 0.00 82 1011.7
20260904094318 25 156 8.0 16.1 0.00 0.00 0.00 82 1014.7
20260904094057 25 149 8.0 16.1 0.00 0.00 0.00 82 1011.7
20260904093814 25 173 9.7 16.1 0.00 0.00 0.00 82 1014.7
20260904093546 25 172 9.7 16.1 0.00 0.00 0.00 82 1011.8
20260904093332 25 192 8.0 16.1 0.00 0.00 0.00 82 1014.8
20260904093037 25 193 8.0 16.1 0.00 0.00 0.00 82 1011.8
20260904092832 25 179 8.0 11.3 0.00 0.00 0.00 82 1014.9
20260904092532 25 185 6.4 11.3 0.00 0.00 0.00 82 1011.9
20260904092349 25 160 8.0 16.1 0.00 0.00 0.00 82 1014.8
20260904092056 25 178 8.0 16.1 0.00 0.00 0.00 82 1011.9
20260904091824 25 170 8.0 16.1 0.00 0.00 0.00 82 1014.9
20260904091549 25 174 9.7 16.1 0.00 0.00 0.00 82 1011.9
20260904091324 25 165 8.0 16.1 0.00 0.00 0.00 82 1015.0
20260904091044 25 147 6.4 16.1 0.00 0.00 0.00 82 1011.9
20260904090822 25 206 9.7 16.1 0.00 0.00 0.00 82 1015.0
20260904090504 25 181 9.7 17.7 0.00 0.00 0.00 82 1012.0
20260904090341 25 188 8.0 14.5 0.00 0.00 0.00 82 1015.0
20260904090045 25 156 9.7 16.1 0.00 0.00 0.00 82 1012.0
20260904085900 25 171 9.7 14.5 0.00 0.00 0.00 82 1014.9
20260904085513 25 166 9.7 14.5 0.00 0.00 0.00 82 1012.0
20260904085332 25 169 9.7 14.5 0.00 0.00 0.00 81 1015.0
20260904085103 25 168 8.0 14.5 0.00 0.00 0.00 81 1012.0
20260904085002 25 169 6.4 14.5 0.00 0.00 0.00 81 1012.0
20260904084829 25 163 8.0 14.5 0.00 0.00 0.00 81 1015.0
20260904084537 25 130 8.0 14.5 0.00 0.00 0.00 81 1012.1
20260904084326 25 176 9.7 16.1 0.00 0.00 0.00 81 1015.1
20260904084027 25 212 8.0 19.3 0.00 0.00 0.00 81 1012.0
20260904083824 25 158 9.7 19.3 0.00 0.00 0.00 81 1015.1
20260904083512 25 159 11.3 19.3 0.00 0.00 0.00 81 1012.0
20260904083342 25 155 14.5 19.3 0.00 0.00 0.00 81 1015.1
20260904083111 25 179 12.9 17.7 0.00 0.00 0.00 81 1012.0
20260904082819 25 151 11.3 17.7 0.00 0.00 0.00 81 1015.1
20260904082537 25 180 9.7 17.7 0.00 0.00 0.00 80 1012.0
20260904082316 25 191 9.7 17.7 0.00 0.00 0.00 80 1015.1
20260904082059 25 158 9.7 17.7 0.00 0.00 0.00 80 1012.0
20260904081833 25 203 8.0 17.7 0.00 0.00 0.00 80 1015.0
20260904081529 25 177 8.0 17.7 0.00 0.00 0.00 80 1011.9
20260904081351 25 199 12.9 17.7 0.00 0.00 0.00 80 1015.0
20260904081052 25 162 9.7 17.7 0.00 0.00 0.00 80 1012.0
20260904080829 25 220 9.7 17.7 0.00 0.00 0.00 80 1015.0
20260904080542 25 169 11.3 17.7 0.00 0.00 0.00 80 1012.1
20260904080346 25 172 9.7 19.3 0.00 0.00 0.00 80 1015.1
20260904080004 25 171 9.7 19.3 0.00 0.00 0.00 80 1012.0
20260904075823 26 193 11.3 19.3 0.00 0.00 0.00 80 1015.0
20260904075559 25 166 11.3 19.3 0.00 0.00 0.00 80 1012.0
20260904075321 26 191 9.7 16.1 0.00 0.00 0.00 79 1015.0
20260904075030 25 192 9.7 16.1 0.00 0.00 0.00 79 1012.0
20260904074839 26 170 9.7 16.1 0.00 0.00 0.00 79 1015.0
20260904074554 25 181 8.0 17.7 0.00 0.00 0.00 79 1011.9
20260904074315 26 185 8.0 17.7 0.00 0.00 0.00 79 1015.0
20260904074044 25 155 11.3 27.4 0.00 0.00 0.00 79 1012.0
20260904073813 26 195 11.3 27.4 0.00 0.00 0.00 79 1015.0
20260904073536 25 166 12.9 27.4 0.00 0.00 0.00 79 1012.1
20260904073352 26 183 14.5 27.4 0.00 0.00 0.00 79 1015.0
20260904073101 25 147 16.1 22.5 0.00 0.00 0.00 79 1012.0
20260904072829 26 152 11.3 22.5 0.00 0.00 0.00 79 1015.0
20260904072549 25 170 12.9 22.5 0.00 0.00 0.00 79 1012.0
20260904072341 26 172 14.5 22.5 0.00 0.00 0.00 79 1015.1
20260904072030 25 164 12.9 19.3 0.00 0.00 0.00 79 1012.0
20260904071839 26 172 14.5 19.3 0.00 0.00 0.00 79 1015.1
20260904071622 26 159 11.3 17.7 0.00 0.00 0.00 79 1012.2
20260904071331 26 182 11.3 17.7 0.00 0.00 0.00 79 1015.3
20260904071052 26 150 9.7 19.3 0.00 0.00 0.00 79 1012.2
20260904070829 26 136 11.3 19.3 0.00 0.00 0.00 78 1015.3
20260904070542 26 139 12.9 19.3 0.00 0.00 0.00 78 1012.2
20260904070325 26 195 11.3 19.3 0.00 0.00 0.00 78 1015.3
20260904070105 26 152 11.3 17.7 0.00 0.00 0.00 78 1012.2
20260904065823 26 167 12.9 17.7 0.00 0.00 0.00 78 1015.3
20260904065525 26 172 9.7 19.3 0.00 0.00 0.00 78 1012.3
20260904065322 26 153 11.3 19.3 0.00 0.00 0.00 78 1015.3
20260904065014 26 162 9.7 25.7 0.00 0.00 0.00 78 1012.2
20260904064820 26 136 9.7 25.7 0.00 0.00 0.00 78 1015.4
20260904064502 26 172 16.1 25.7 0.00 0.00 0.00 78 1012.4
20260904064339 26 145 12.9 25.7 0.00 0.00 0.00 78 1015.4
20260904064053 26 160 11.3 19.3 0.00 0.00 0.00 78 1012.4
20260904063830 26 161 11.3 19.3 0.00 0.00 0.00 78 1015.4
20260904063542 26 164 11.3 22.5 0.00 0.00 0.00 78 1012.5
20260904063329 26 170 9.7 22.5 0.00 0.00 0.00 78 1015.5
20260904063036 26 191 12.9 22.5 0.00 0.00 0.00 78 1012.5
20260904062826 26 131 9.7 17.7 0.00 0.00 0.00 78 1015.5
20260904062514 26 164 9.7 17.7 0.00 0.00 0.00 78 1012.5
20260904062344 26 160 9.7 17.7 0.00 0.00 0.00 78 1015.5
20260904062046 26 150 11.3 17.7 0.00 0.00 0.00 78 1012.4
20260904061822 26 160 14.5 17.7 0.00 0.00 0.00 78 1015.4
20260904061538 26 154 11.3 17.7 0.00 0.00 0.00 78 1012.3
20260904061319 26 167 8.0 16.1 0.00 0.00 0.00 77 1015.3
20260904061030 26 173 8.0 16.1 0.00 0.00 0.00 77 1012.2
20260904060818 26 148 11.3 16.1 0.00 0.00 0.00 77 1015.2
20260904060522 26 158 9.7 16.1 0.00 0.00 0.00 77 1012.2
20260904060336 26 163 11.3 16.1 0.00 0.00 0.00 77 1015.3
20260904060050 26 153 9.7 17.7 0.00 0.00 0.00 77 1012.2
20260904055831 26 144 11.3 19.3 0.00 0.00 0.00 77 1015.1
20260904055516 26 157 11.3 19.3 0.00 0.00 0.00 77 1012.1
20260904055329 26 155 8.0 19.3 0.00 0.00 0.00 77 1015.1
20260904055006 26 141 11.3 19.3 0.00 0.00 0.00 77 1012.1
20260904054825 26 139 11.3 19.3 0.00 0.00 0.00 77 1015.1
20260904054504 26 134 9.7 19.3 0.00 0.00 0.00 77 1012.0
20260904054344 26 145 12.9 19.3 0.00 0.00 0.00 76 1015.0
20260904054042 26 156 12.9 19.3 0.00 0.00 0.00 76 1012.1
20260904053822 26 133 11.3 19.3 0.00 0.00 0.00 76 1015.1
20260904053539 26 159 9.7 16.1 0.00 0.00 0.00 76 1012.0
20260904053319 26 143 8.0 16.1 0.00 0.00 0.00 76 1015.1
20260904053049 26 145 11.3 16.1 0.00 0.00 0.00 76 1012.0
20260904052817 26 152 11.3 16.1 0.00 0.00 0.00 76 1015.1
20260904052528 26 154 8.0 16.1 0.00 0.00 0.00 76 1012.1
20260904052316 26 141 8.0 16.1 0.00 0.00 0.00 76 1015.1
20260904052022 26 151 8.0 16.1 0.00 0.00 0.00 76 1012.0
20260904051832 26 160 9.7 16.1 0.00 0.00 0.00 76 1015.0
20260904051520 26 156 8.0 20.9 0.00 0.00 0.00 76 1012.0
20260904051329 26 152 11.3 20.9 0.00 0.00 0.00 75 1015.0
20260904051059 26 157 12.9 20.9 0.00 0.00 0.00 75 1012.0
20260904050847 26 156 12.9 20.9 0.00 0.00 0.00 75 1015.0
20260904050529 26 152 9.7 16.1 0.00 0.00 0.00 75 1011.8
20260904050321 26 153 9.7 16.1 0.00 0.00 0.00 75 1014.9
20260904050116 26 145 11.3 17.7 0.00 0.00 0.00 75 1011.8
20260904045829 26 162 11.3 17.7 0.00 0.00 0.00 75 1014.9
20260904045545 26 156 9.7 17.7 0.00 0.00 0.00 75 1011.8
20260904045346 26 150 9.7 16.1 0.00 0.00 0.00 75 1015.0
20260904045006 26 144 9.7 14.5 0.00 0.00 0.00 75 1011.8
20260904044823 26 147 9.7 14.5 0.00 0.00 0.00 74 1014.9
20260904044558 26 150 8.0 12.9 0.00 0.00 0.00 74 1011.9
20260904044321 26 138 9.7 16.1 0.00 0.00 0.00 74 1014.9
20260904044048 26 146 4.8 16.1 0.00 0.00 0.00 74 1011.8
20260904043820 26 174 8.0 16.1 0.00 0.00 0.00 74 1014.9
20260904043538 26 135 9.7 14.5 0.00 0.00 0.00 74 1011.8
20260904043317 26 141 11.3 14.5 0.00 0.00 0.00 74 1015.0
20260904043035 26 145 8.0 19.3 0.00 0.00 0.00 74 1011.8
20260904042815 26 132 6.4 19.3 0.00 0.00 0.00 74 1014.9
20260904042512 26 161 11.3 19.3 0.00 0.00 0.00 74 1011.8
20260904042333 27 144 11.3 19.3 0.00 0.00 0.00 74 1014.9
20260904042102 26 156 11.3 17.7 0.00 0.00 0.00 74 1011.9
20260904041831 27 165 8.0 17.7 0.00 0.00 0.00 73 1014.9
20260904041553 26 119 4.8 11.3 0.00 0.00 0.00 73 1011.9
20260904041330 27 119 4.8 17.7 0.00 0.00 0.00 73 1014.8
20260904041046 26 130 4.8 17.7 0.00 0.00 0.00 73 1011.7
20260904040827 27 151 8.0 17.7 0.00 0.00 0.00 73 1014.8
20260904040532 26 141 12.9 17.7 0.00 0.00 0.00 73 1011.7
20260904040325 27 159 8.0 16.1 0.00 0.00 0.00 73 1014.9
20260904040022 26 103 9.7 17.7 0.00 0.00 0.00 73 1011.8
20260904035823 27 129 8.0 17.7 0.00 0.00 0.00 73 1014.9
20260904035504 27 170 9.7 17.7 0.00 0.00 0.00 73 1011.8
20260904035320 27 149 14.5 17.7 0.00 0.00 0.00 73 1014.8
20260904035037 27 133 9.7 16.1 0.00 0.00 0.00 72 1011.7
20260904034818 27 139 11.3 16.1 0.00 0.00 0.00 72 1015.0
20260904034529 27 160 9.7 16.1 0.00 0.00 0.00 72 1011.8
20260904034316 27 127 9.7 16.1 0.00 0.00 0.00 72 1014.8
20260904034012 27 160 9.7 19.3 0.00 0.00 0.00 72 1011.6
20260904033850 27 156 11.3 22.5 0.00 0.00 0.00 72 1014.7
20260904033544 27 133 8.0 22.5 0.00 0.00 0.00 72 1011.6
20260904033327 27 152 11.3 24.1 0.00 0.00 0.00 72 1014.7
20260904033035 27 120 12.9 24.1 0.00 0.00 0.00 72 1011.5
20260904032825 27 149 11.3 24.1 0.00 0.00 0.00 72 1014.6
20260904032526 27 139 12.9 24.1 0.00 0.00 0.00 72 1011.6
20260904032323 27 131 12.9 16.1 0.00 0.00 0.00 72 1014.6
20260904032007 27 151 8.0 14.5 0.00 0.00 0.00 72 1011.6
20260904031821 27 150 9.7 14.5 0.00 0.00 0.00 72 1014.8
20260904031608 27 123 6.4 12.9 0.00 0.00 0.00 72 1011.6
20260904031318 27 149 6.4 12.9 0.00 0.00 0.00 71 1014.8
20260904031028 27 139 4.8 14.5 0.00 0.00 0.00 71 1011.6
20260904030816 27 121 6.4 19.3 0.00 0.00 0.00 71 1014.7
20260904030520 27 146 8.0 19.3 0.00 0.00 0.00 71 1011.7
20260904030315 27 143 9.7 19.3 0.00 0.00 0.00 71 1014.7
20260904030005 27 143 12.9 19.3 0.00 0.00 0.00 71 1011.6
20260904025852 27 141 14.5 19.3 0.00 0.00 0.00 71 1014.7
20260904025536 27 162 9.7 20.9 0.00 0.00 0.00 71 1011.4
20260904025329 27 141 12.9 20.9 0.00 0.00 0.00 71 1014.5
20260904025016 27 122 14.5 20.9 0.00 0.00 0.00 71 1011.3
20260904024828 28 122 11.3 20.9 0.00 0.00 0.00 71 1014.5
20260904024509 27 153 9.7 16.1 0.00 0.00 0.00 71 1011.2
20260904024326 28 120 9.7 16.1 0.00 0.00 0.00 71 1014.4
20260904024004 27 127 8.0 17.7 0.00 0.00 0.00 71 1011.2
20260904023824 28 137 11.3 17.7 0.00 0.00 0.00 71 1014.2
20260904023602 27 143 4.8 20.9 0.00 0.00 0.00 70 1011.1
20260904023323 28 118 8.0 20.9 0.00 0.00 0.00 70 1014.2
20260904023100 28 112 11.3 20.9 0.00 0.00 0.00 70 1011.1
20260904022821 28 139 11.3 20.9 0.00 0.00 0.00 70 1014.2
20260904022558 28 111 8.0 20.9 0.00 0.00 0.00 70 1011.0
20260904022320 28 142 6.4 20.9 0.00 0.00 0.00 70 1014.0
20260904022049 28 143 8.0 20.9 0.00 0.00 0.00 70 1010.9
20260904021838 28 108 9.7 19.3 0.00 0.00 0.00 70 1014.0
20260904021539 28 164 9.7 27.4 0.00 0.00 0.00 69 1010.8
20260904021332 28 148 8.0 27.4 0.00 0.00 0.00 69 1014.0
20260904021034 28 118 11.3 27.4 0.00 0.00 0.00 69 1010.8
20260904020830 28 77 16.1 27.4 0.00 0.00 0.00 69 1014.0
20260904020531 28 143 11.3 22.5 0.00 0.00 0.00 69 1010.8
20260904020329 28 138 9.7 22.5 0.00 0.00 0.00 69 1014.0
20260904020012 28 130 12.9 25.7 0.00 0.00 0.00 69 1010.8
20260904015828 28 135 14.5 25.7 0.00 0.00 0.00 69 1013.9
20260904015501 28 145 12.9 25.7 0.00 0.00 0.00 68 1010.8
20260904015347 28 127 14.5 25.7 0.00 0.00 0.00 68 1013.8
20260904015034 28 146 9.7 17.7 0.00 0.00 0.00 68 1010.7
20260904014826 29 89 8.0 17.7 0.00 0.00 0.00 68 1013.8
20260904014527 28 133 11.3 22.5 0.00 0.00 0.00 68 1010.7
20260904014324 29 157 12.9 22.5 0.00 0.00 0.00 68 1013.7
20260904014014 28 135 12.9 25.7 0.00 0.00 0.00 68 1010.6
20260904013823 29 124 12.9 25.7 0.00 0.00 0.00 68 1013.8
20260904013505 28 141 14.5 27.4 0.00 0.00 0.00 68 1010.5
20260904013341 29 158 14.5 27.4 0.00 0.00 0.00 68 1013.6
20260904013044 29 135 11.3 27.4 0.00 0.00 0.00 68 1010.4
20260904012839 29 149 14.5 27.4 0.00 0.00 0.00 68 1013.5
20260904012526 29 116 16.1 29.0 0.00 0.00 0.00 68 1010.4
20260904012331 29 147 14.5 30.6 0.00 0.00 0.00 68 1013.6
20260904012014 29 103 14.5 30.6 0.00 0.00 0.00 68 1010.4
20260904011830 30 164 12.9 30.6 0.00 0.00 0.00 67 1013.5
20260904011506 29 151 17.7 29.0 0.00 0.00 0.00 67 1010.2
20260904011330 30 164 16.1 29.0 0.00 0.00 0.00 67 1013.4
20260904011101 30 120 16.1 35.4 0.00 0.00 0.00 67 1010.1
20260904010829 30 131 14.5 35.4 0.00 0.00 0.00 67 1013.2
20260904010552 30 127 19.3 35.4 0.00 0.00 0.00 67 1010.1
20260904010328 30 110 17.7 27.4 0.00 0.00 0.00 66 1013.2
20260904010046 30 122 0.0 0.0 0.00 0.00 0.00 66 1010.1
20260904005829 30 133 0.0 0.0 0.00 0.00 0.00 66 1013.3
20260904005537 30 125 0.0 0.0 0.00 0.00 0.00 65 1010.1
20260904005346 30 147 0.0 0.0 0.00 0.00 0.00 65 1013.3
20260904005004 30 145 0.0 0.0 0.00 0.00 0.00 65 1010.1
20260904004824 31 141 0.0 0.0 0.00 0.00 0.00 66 1013.1
20260904004558 30 151 0.0 0.0 0.00 0.00 0.00 66 1009.9
20260904004323 31 143 0.0 0.0 0.00 0.00 0.00 66 1013.1
20260904004050 31 149 0.0 0.0 0.00 0.00 0.00 66 1010.0
20260904003822 31 107 0.0 0.0 0.00 0.00 0.00 66 1013.1
20260904003541 31 93 0.0 0.0 0.00 0.00 0.00 65 1009.9
20260904003320 31 131 0.0 0.0 0.00 0.00 0.00 65 1013.1
20260904003036 31 154 0.0 0.0 0.00 0.00 0.00 64 1009.9
20260904002819 31 127 0.0 0.0 0.00 0.00 0.00 64 1013.1
20260904002528 31 141 0.0 0.0 0.00 0.00 0.00 63 1009.8
20260904002318 31 140 0.0 0.0 0.00 0.00 0.00 63 1012.9
20260904002022 31 123 0.0 0.0 0.00 0.00 0.00 62 1009.6
20260904001816 32 155 0.0 0.0 0.00 0.00 0.00 62 1012.8
20260904001514 31 122 0.0 0.0 0.00 0.00 0.00 62 1009.7
20260904001314 32 148 0.0 0.0 0.00 0.00 0.00 61 1012.9
20260904001058 32 161 0.0 0.0 0.00 0.00 0.00 61 1009.7
20260904000833 32 125 0.0 0.0 0.00 0.00 0.00 60 1012.9
20260904000550 32 133 0.0 0.0 0.00 0.00 0.00 60 1009.7
20260904000352 32 130 0.0 0.0 0.00 0.00 0.00 60 1012.9
20260904000015 32 142 0.0 0.0 0.00 0.13 0.00 60 1009.7
20260903235829 32 99 0.0 0.0 0.00 0.13 0.00 59 1012.8
20260903235509 32 130 0.0 0.0 0.00 0.13 0.00 58 1009.5
20260903235327 32 128 0.0 0.0 0.00 0.13 0.00 58 1012.7
20260903235100 32 125 0.0 0.0 0.00 0.13 0.00 58 1009.5
20260903234825 33 138 0.0 0.0 0.00 0.13 0.00 57 1012.6
20260903234530 33 129 0.0 0.0 0.00 0.13 0.00 56 1009.4
20260903234323 33 131 0.0 0.0 0.00 0.13 0.00 56 1012.5
20260903234022 33 138 0.0 0.0 0.00 0.13 0.00 55 1009.3
20260903233822 33 166 0.0 0.0 0.00 0.13 0.00 55 1012.5
20260903233520 33 149 0.0 0.0 0.00 0.13 0.00 55 1009.2
20260903233320 33 139 0.0 0.0 0.00 0.13 0.00 54 1012.5
20260903233017 33 137 0.0 0.0 0.00 0.13 0.00 54 1009.1
20260903232818 34 122 0.0 0.0 0.00 0.13 0.00 53 1012.3
20260903232515 33 105 0.0 0.0 0.00 0.13 0.00 53 1009.1
20260903232316 34 154 0.0 0.0 0.00 0.13 0.00 53 1012.4
20260903232102 33 154 0.0 0.0 0.00 0.13 0.00 53 1009.2
20260903231829 34 102 0.0 0.0 0.00 0.13 0.00 53 1012.4
20260903231536 33 141 0.0 0.0 0.00 0.13 0.00 52 1009.2
20260903231327 34 94 0.0 0.0 0.00 0.13 0.00 52 1012.3
20260903231015 33 148 0.0 0.0 0.00 0.13 0.00 52 1009.1
20260903230825 34 115 0.0 0.0 0.00 0.13 0.00 52 1012.2
20260903230508 33 131 0.0 0.0 0.00 0.13 0.00 51 1009.0
20260903230323 34 143 0.0 0.0 0.00 0.13 0.00 51 1012.2
20260903230105 34 118 0.0 0.0 0.00 0.13 0.00 51 1008.9
20260903225821 34 137 0.0 0.0 0.00 0.13 0.00 51 1012.1
20260903225554 34 133 0.0 0.0 0.00 0.13 0.00 50 1008.9
20260903225319 35 172 0.0 0.0 0.00 0.13 0.00 50 1012.0
20260903225048 34 108 0.0 0.0 0.00 0.13 0.00 50 1008.8
20260903224837 35 159 0.0 0.0 0.00 0.13 0.00 49 1012.0
20260903224520 35 121 0.0 0.0 0.00 0.13 0.00 49 1008.8
20260903224340 35 121 0.0 0.0 0.00 0.13 0.00 49 1012.0
20260903224040 35 123 0.0 0.0 0.00 0.13 0.00 48 1008.7
20260903223831 35 96 0.0 0.0 0.00 0.13 0.00 48 1011.9
20260903223531 35 120 0.0 0.0 0.00 0.13 0.00 48 1008.7
20260903223329 35 139 0.0 0.0 0.00 0.13 0.00 48 1011.8
20260903223020 35 116 0.0 0.0 0.00 0.13 0.00 48 1008.7
20260903222827 35 129 0.0 0.0 0.00 0.13 0.00 48 1011.9
20260903222507 35 129 0.0 0.0 0.00 0.13 0.00 48 1008.7
20260903222325 35 116 0.0 0.0 0.00 0.13 0.00 47 1011.8
20260903222103 35 139 0.0 0.0 0.00 0.13 0.00 47 1008.7
20260903221843 36 73 0.0 0.0 0.00 0.13 0.00 47 1011.9
20260903221532 35 156 0.0 0.0 0.00 0.13 0.00 47 1008.7
20260903221320 36 151 0.0 0.0 0.00 0.13 0.00 47 1012.0
20260903221021 35 102 0.0 0.0 0.00 0.13 0.00 47 1008.7
20260903220818 36 103 0.0 0.0 0.00 0.13 0.00 47 1011.9
20260903220503 35 129 0.0 0.0 0.00 0.13 0.00 47 1008.7
20260903220316 36 131 0.0 0.0 0.00 0.13 0.00 47 1012.0
20260903220056 35 152 0.0 0.0 0.00 0.13 0.00 47 1008.7
20260903220001 36 132 0.0 0.0 0.00 0.13 0.00 47 1012.0
20260903215506 35 119 0.0 0.0 0.00 0.13 0.00 47 1008.8
20260903215323 36 115 0.0 0.0 0.00 0.13 0.00 46 1011.9
20260903215100 35 147 0.0 0.0 0.00 0.13 0.00 46 1008.9
20260903214822 36 177 0.0 0.0 0.00 0.13 0.00 47 1012.0
20260903214605 35 109 0.0 0.0 0.00 0.13 0.00 47 1008.7
20260903214340 35 156 0.0 0.0 0.00 0.13 0.00 47 1012.0
20260903214036 35 136 0.0 0.0 0.00 0.13 0.00 47 1008.9
20260903213831 35 89 0.0 0.0 0.00 0.13 0.00 47 1012.1
20260903213520 35 116 0.0 0.0 0.00 0.13 0.00 47 1009.0
20260903213349 35 154 0.0 0.0 0.00 0.13 0.00 47 1012.2
20260903213052 35 168 0.0 0.0 0.00 0.13 0.00 47 1009.0
20260903212846 36 164 0.0 0.0 0.00 0.13 0.00 47 1012.2
20260903212529 35 131 0.0 0.0 0.00 0.13 0.00 48 1009.1
20260903212323 36 137 0.0 0.0 0.00 0.13 0.00 47 1012.3
20260903212007 35 79 0.0 0.0 0.00 0.13 0.00 48 1009.1
20260903211821 35 116 0.0 0.0 0.00 0.13 0.00 48 1012.4
20260903211609 35 105 0.0 0.0 0.00 0.13 0.00 48 1009.2
20260903211319 35 130 0.0 0.0 0.00 0.13 0.00 48 1012.4
20260903211051 35 127 0.0 0.0 0.00 0.13 0.00 49 1009.2
20260903210817 35 144 0.0 0.0 0.00 0.13 0.00 49 1012.5
20260903210544 35 78 0.0 0.0 0.00 0.13 0.00 49 1009.3
20260903210315 35 168 0.0 0.0 0.00 0.13 0.00 50 1012.6
20260903210043 35 125 0.0 0.0 0.00 0.13 0.00 49 1009.4
20260903205833 35 136 0.0 0.0 0.00 0.13 0.00 49 1012.6
20260903205529 35 92 0.0 0.0 0.00 0.13 0.00 48 1009.3
20260903205331 35 146 0.0 0.0 0.00 0.13 0.00 48 1012.6
20260903205009 35 135 0.0 0.0 0.00 0.13 0.00 49 1009.4
20260903204850 35 78 0.0 0.0 0.00 0.13 0.00 49 1012.7
20260903204542 35 139 0.0 0.0 0.00 0.13 0.00 49 1009.5
20260903204326 35 158 0.0 0.0 0.00 0.13 0.00 49 1012.8
20260903204031 35 145 0.0 0.0 0.00 0.13 0.00 49 1009.7
20260903203824 35 162 0.0 0.0 0.00 0.13 0.00 48 1012.8
20260903203524 35 163 0.0 0.0 0.00 0.13 0.00 49 1009.7
20260903203342 35 73 0.0 0.0 0.00 0.13 0.00 49 1012.8
20260903203047 35 153 0.0 0.0 0.00 0.13 0.00 49 1009.7
20260903202819 35 150 0.0 0.0 0.00 0.13 0.00 49 1013.0
20260903202547 35 89 0.0 0.0 0.00 0.13 0.00 49 1009.8
20260903202352 35 117 0.0 0.0 0.00 0.13 0.00 50 1013.0
20260903202011 35 135 0.0 0.0 0.00 0.13 0.00 49 1009.9
20260903201829 35 89 0.0 0.0 0.00 0.13 0.00 50 1013.1
20260903201508 35 135 0.0 0.0 0.00 0.13 0.00 50 1009.9
20260903201325 35 121 0.0 0.0 0.00 0.13 0.00 50 1013.1
20260903201106 35 164 0.0 0.0 0.00 0.13 0.00 50 1009.9
20260903200823 35 141 0.0 0.0 0.00 0.13 0.00 50 1013.2
20260903200554 34 129 0.0 0.0 0.00 0.13 0.00 50 1010.1
20260903200321 35 143 0.0 0.0 0.00 0.13 0.00 50 1013.3
20260903200057 34 125 0.0 0.0 0.00 0.13 0.00 50 1010.2
20260903195819 35 95 0.0 0.0 0.00 0.13 0.00 50 1013.3
20260903195539 34 102 0.0 0.0 0.00 0.13 0.00 49 1010.3
20260903195317 35 55 0.0 0.0 0.00 0.13 0.00 49 1013.5
20260903195033 35 102 0.0 0.0 0.00 0.13 0.00 50 1010.4
20260903194815 35 124 0.0 0.0 0.00 0.13 0.00 50 1013.6
20260903194527 34 56 0.0 0.0 0.00 0.13 0.00 50 1010.4
20260903194333 35 139 0.0 0.0 0.00 0.13 0.00 50 1013.7
20260903194015 34 139 0.0 0.0 0.00 0.13 0.00 50 1010.6
20260903193851 35 131 0.0 0.0 0.00 0.13 0.00 49 1013.8
20260903193551 34 133 0.0 0.0 0.00 0.13 0.00 50 1010.6
20260903193329 35 70 0.0 0.0 0.00 0.13 0.00 50 1013.8
20260903193044 34 97 0.0 0.0 0.00 0.13 0.00 50 1010.7
20260903192829 35 116 0.0 0.0 0.00 0.13 0.00 49 1013.9
20260903192537 35 87 0.0 0.0 0.00 0.13 0.00 50 1010.6
20260903192326 35 135 0.0 0.0 0.00 0.13 0.00 50 1014.0
20260903192031 34 146 0.0 0.0 0.00 0.13 0.00 50 1010.8
20260903191823 34 127 0.0 0.0 0.00 0.13 0.00 51 1013.9
20260903191524 34 118 0.0 0.0 0.00 0.13 0.00 51 1010.9
20260903191321 34 118 0.0 0.0 0.00 0.13 0.00 50 1014.1
20260903191009 33 172 0.0 0.0 0.00 0.13 0.00 50 1011.0
20260903190818 34 140 0.0 0.0 0.00 0.13 0.00 50 1014.2
20260903190502 33 152 0.0 0.0 0.00 0.13 0.00 50 1011.1
20260903190315 34 153 0.0 0.0 0.00 0.13 0.00 50 1014.3
20260903190053 33 166 0.0 0.0 0.00 0.13 0.00 51 1011.1
20260903185831 33 120 0.0 0.0 0.00 0.13 0.00 51 1014.4
20260903185545 33 164 0.0 0.0 0.00 0.13 0.00 51 1011.2
20260903185350 33 163 0.0 0.0 0.00 0.13 0.00 51 1014.5
20260903185008 33 116 0.0 0.0 0.00 0.13 0.00 51 1011.3
20260903184825 33 64 0.0 0.0 0.00 0.13 0.00 51 1014.6
20260903184559 33 77 0.0 0.0 0.00 0.13 0.00 51 1011.3
20260903184324 33 123 0.0 0.0 0.00 0.13 0.00 51 1014.7
20260903184053 33 160 0.0 0.0 0.00 0.13 0.00 50 1011.4
20260903183842 33 192 0.0 0.0 0.00 0.13 0.00 51 1014.6
20260903183523 33 87 0.0 0.0 0.00 0.13 0.00 52 1011.5
20260903183319 33 138 0.0 0.0 0.00 0.13 0.00 51 1014.8
20260903183019 33 160 0.0 0.0 0.00 0.13 0.00 52 1011.5
20260903182817 33 145 0.0 0.0 0.00 0.13 0.00 52 1014.8
20260903182503 33 125 0.0 0.0 0.00 0.13 0.00 53 1011.7
20260903182316 33 85 0.0 0.0 0.00 0.13 0.00 52 1014.9
20260903182058 33 132 0.0 0.0 0.00 0.13 0.00 53 1011.8
20260903181814 33 143 0.0 0.0 0.00 0.13 0.00 53 1015.0
20260903181549 33 170 0.0 0.0 0.00 0.13 0.00 53 1011.9
20260903181352 33 133 0.0 0.0 0.00 0.13 0.00 53 1015.1
20260903181015 33 161 0.0 0.0 0.00 0.13 0.00 53 1012.0
20260903180830 33 159 0.0 0.0 0.00 0.13 0.00 53 1015.3
20260903180510 32 144 0.0 0.0 0.00 0.13 0.00 54 1012.1
20260903180329 33 108 0.0 0.0 0.00 0.13 0.00 54 1015.3
20260903175826 33 161 0.0 0.0 0.00 0.13 0.00 55 1015.3
20260903175553 32 152 0.0 0.0 0.00 0.13 0.00 56 1012.2
20260903175323 32 214 0.0 0.0 0.00 0.13 0.00 56 1015.3
20260903175047 32 101 0.0 0.0 0.00 0.13 0.00 57 1012.1
20260903174841 32 102 0.0 0.0 0.00 0.13 0.00 57 1015.4
20260903174518 32 113 0.0 0.0 0.00 0.13 0.00 56 1012.2
20260903174319 32 158 0.0 0.0 0.00 0.13 0.00 57 1015.5
20260903174104 32 131 0.0 0.0 0.00 0.13 0.00 57 1012.2
20260903173819 32 133 0.0 0.0 0.00 0.13 0.00 57 1015.4
20260903173553 32 188 0.0 0.0 0.00 0.13 0.00 57 1012.2
20260903173315 32 235 0.0 0.0 0.00 0.13 0.00 58 1015.4
20260903173045 31 231 0.0 0.0 0.00 0.13 0.00 58 1012.2
20260903172852 32 190 0.0 0.0 0.00 0.13 0.00 58 1015.5
20260903172509 31 194 0.0 0.0 0.00 0.13 0.00 58 1012.3
20260903172329 32 181 0.0 0.0 0.00 0.13 0.00 59 1015.5
20260903172002 31 217 0.0 0.0 0.00 0.13 0.00 60 1012.2
20260903171848 31 278 0.0 0.0 0.00 0.13 0.00 60 1015.5
20260903171537 31 212 0.0 0.0 0.00 0.13 0.00 61 1012.2
20260903171324 31 226 0.0 0.0 0.00 0.13 0.00 61 1015.4
20260903171033 31 247 0.0 0.0 0.00 0.13 0.00 61 1012.3
20260903170822 31 187 0.0 0.0 0.00 0.13 0.00 61 1015.5
20260903170524 31 234 0.0 0.0 0.00 0.13 0.00 61 1012.4
20260903170320 31 217 0.0 0.0 0.00 0.13 0.00 62 1015.6
20260903170017 31 183 0.0 0.0 0.00 0.13 0.00 61 1012.5
20260903165819 31 218 0.0 0.0 0.00 0.13 0.00 62 1015.7
20260903165600 31 278 0.0 0.0 0.00 0.13 0.00 63 1012.4
20260903165316 31 195 0.0 0.0 0.00 0.13 0.00 64 1015.6
20260903165052 30 240 0.0 0.0 0.00 0.13 0.00 65 1012.5
20260903164814 30 219 0.0 0.0 0.00 0.13 0.00 65 1015.7
20260903164545 30 242 0.0 0.0 0.00 0.13 0.00 65 1012.5
20260903164328 30 220 0.0 0.0 0.00 0.13 0.00 64 1015.8
20260903164036 30 224 0.0 0.0 0.00 0.13 0.00 65 1012.6
20260903163825 30 247 0.0 0.0 0.00 0.13 0.00 65 1015.8
20260903163528 30 212 0.0 0.0 0.00 0.13 0.00 66 1012.5
20260903163323 30 220 0.0 0.0 0.00 0.13 0.00 66 1015.8
20260903163007 30 215 0.0 0.0 0.00 0.13 0.00 66 1012.6
20260903162821 30 247 0.0 0.0 0.00 0.13 0.00 67 1015.8
20260903162604 30 204 0.0 0.0 0.00 0.13 0.00 67 1012.5
20260903162339 30 195 0.0 0.0 0.00 0.13 0.00 67 1015.7
20260903162045 30 216 0.0 0.0 0.00 0.13 0.00 68 1012.5
20260903161830 30 198 0.0 0.0 0.00 0.13 0.00 69 1015.6
20260903161537 29 204 0.0 0.0 0.00 0.13 0.00 68 1012.5
20260903161328 29 193 0.0 0.0 0.00 0.13 0.00 69 1015.7
20260903161028 29 220 0.0 0.0 0.00 0.13 0.00 69 1012.5
20260903160825 29 197 0.0 0.0 0.00 0.13 0.00 69 1015.6
20260903160510 29 214 0.0 0.0 0.00 0.13 0.00 69 1012.5
20260903160325 29 216 0.0 0.0 0.00 0.13 0.00 70 1015.6
20260903160001 29 222 0.0 16.1 0.00 0.13 0.00 70 1012.5
20260903155842 29 235 0.0 16.1 0.00 0.13 0.00 71 1015.8
20260903155532 28 235 0.0 25.7 0.00 0.13 0.00 72 1012.5
20260903155339 28 199 6.4 25.7 0.00 0.13 0.00 72 1015.7
20260903155019 28 242 14.5 24.1 0.00 0.13 0.00 72 1012.6
20260903154830 28 208 14.5 25.7 0.00 0.13 0.00 72 1015.8
20260903154503 28 229 16.1 24.1 0.00 0.13 0.00 72 1012.4
20260903154329 28 226 14.5 24.1 0.00 0.13 0.00 73 1015.6
20260903154055 28 214 14.5 24.1 0.00 0.13 0.00 73 1012.3
20260903153846 28 227 14.5 22.5 0.00 0.13 0.00 74 1015.6
20260903153525 27 249 16.1 22.5 0.00 0.13 0.00 73 1012.2
20260903153322 28 229 14.5 25.7 0.00 0.13 0.00 74 1015.5
20260903153009 27 206 12.9 24.1 0.00 0.13 0.00 74 1012.3
20260903152820 28 241 12.9 24.1 0.00 0.13 0.00 74 1015.3
20260903152502 27 219 11.3 24.1 0.00 0.13 0.00 75 1012.2
20260903152339 27 225 9.7 24.1 0.00 0.13 0.00 75 1015.4
20260903152054 27 191 9.7 27.4 0.00 0.13 0.00 75 1012.2
20260903151830 27 235 14.5 27.4 0.00 0.13 0.00 75 1015.4
20260903151542 27 197 17.7 27.4 0.00 0.13 0.00 75 1012.2
20260903151329 27 217 19.3 27.4 0.00 0.13 0.00 75 1015.5
20260903151034 27 201 19.3 30.6 0.00 0.13 0.00 75 1012.2
20260903150826 27 222 17.7 30.6 0.00 0.13 0.00 76 1015.5
20260903150528 27 189 11.3 25.7 0.00 0.13 0.00 77 1012.2
20260903150325 27 217 14.5 20.9 0.00 0.13 0.00 77 1015.4
20260903150011 27 197 14.5 24.1 0.00 0.13 0.00 77 1012.3
20260903145823 27 210 12.9 19.3 0.00 0.13 0.00 78 1015.5
20260903145601 27 218 12.9 24.1 0.00 0.13 0.00 78 1012.3
20260903145321 27 210 11.3 24.1 0.00 0.13 0.00 78 1015.5
20260903145053 27 202 11.3 24.1 0.00 0.13 0.00 78 1012.3
20260903144839 27 224 16.1 24.1 0.00 0.13 0.00 78 1015.5
20260903144543 26 232 16.1 24.1 0.00 0.13 0.00 78 1012.4
20260903144329 27 216 16.1 22.5 0.00 0.13 0.00 79 1015.5
20260903144034 26 218 14.5 22.5 0.00 0.13 0.00 79 1012.4
20260903143829 27 198 14.5 22.5 0.00 0.13 0.00 80 1015.6
20260903143514 26 218 11.3 20.9 0.00 0.13 0.00 80 1012.4
20260903143326 26 212 14.5 20.9 0.00 0.13 0.00 80 1015.5
20260903143009 26 210 12.9 25.7 0.00 0.13 0.00 81 1012.3
20260903142824 26 211 11.3 27.4 0.00 0.13 0.00 81 1015.4
20260903142503 26 212 14.5 27.4 0.00 0.13 0.00 81 1012.2
20260903142343 26 187 14.5 27.4 0.00 0.13 0.00 81 1015.4
20260903142041 26 219 16.1 20.9 0.00 0.13 0.00 82 1012.2
20260903141819 26 235 16.1 24.1 0.00 0.13 0.00 82 1015.3
20260903141543 26 226 14.5 24.1 0.00 0.13 0.00 82 1012.2
20260903141319 26 205 14.5 24.1 0.00 0.13 0.00 83 1015.4
20260903141038 26 197 11.3 19.3 0.00 0.13 0.00 83 1012.3
20260903140817 26 183 12.9 19.3 0.00 0.13 0.00 83 1015.4
20260903140531 25 186 11.3 24.1 0.00 0.13 0.00 83 1012.3
20260903140335 26 206 12.9 24.1 0.00 0.13 0.00 84 1015.4
20260903140057 25 212 14.5 24.1 0.00 0.13 0.00 84 1012.3
20260903135851 26 216 14.5 24.1 0.00 0.13 0.00 84 1015.4
20260903135528 25 206 14.5 22.5 0.00 0.13 0.00 84 1012.3
20260903135330 26 226 11.3 22.5 0.00 0.13 0.00 84 1015.4
20260903135014 25 198 12.9 22.5 0.00 0.13 0.00 84 1012.3
20260903134830 26 181 12.9 22.5 0.00 0.13 0.00 84 1015.6
20260903134509 25 207 11.3 19.3 0.00 0.13 0.00 84 1012.4
20260903134330 25 208 12.9 19.3 0.00 0.13 0.00 84 1015.6
20260903134002 25 187 9.7 16.1 0.00 0.13 0.00 85 1012.5
20260903133850 25 198 12.9 16.1 0.00 0.13 0.00 84 1015.7
20260903133532 25 204 9.7 17.7 0.00 0.13 0.00 84 1012.5
20260903133328 25 210 9.7 17.7 0.00 0.13 0.00 84 1015.7
20260903133027 25 195 11.3 17.7 0.00 0.13 0.00 84 1012.5
20260903132826 25 209 11.3 17.7 0.00 0.13 0.00 85 1015.6
20260903132523 25 220 11.3 16.1 0.00 0.13 0.00 85 1012.6
20260903132346 25 210 8.0 14.5 0.00 0.13 0.00 85 1015.6
20260903132044 25 214 9.7 16.1 0.00 0.13 0.00 85 1012.5
20260903131840 25 204 8.0 16.1 0.00 0.13 0.00 85 1015.7
20260903131507 25 182 6.4 16.1 0.00 0.13 0.00 85 1012.5
20260903131337 25 156 11.3 16.1 0.00 0.13 0.00 85 1015.6
20260903131057 25 206 6.4 16.1 0.00 0.13 0.00 85 1012.5
20260903130830 25 187 9.7 16.1 0.00 0.13 0.00 85 1015.6
20260903130550 25 179 9.7 16.1 0.00 0.13 0.00 85 1012.5
20260903130330 25 184 9.7 16.1 0.00 0.13 0.00 85 1015.6
20260903130042 25 197 9.7 16.1 0.00 0.13 0.00 85 1012.3
20260903125850 25 188 9.7 17.7 0.00 0.13 0.00 85 1015.5
20260903125509 25 192 9.7 17.7 0.00 0.13 0.00 85 1012.4
20260903125329 25 188 11.3 17.7 0.00 0.13 0.00 85 1015.5
20260903125003 25 193 11.3 17.7 0.00 0.13 0.00 85 1012.3
20260903124827 25 173 11.3 17.7 0.00 0.13 0.00 85 1015.5
20260903124557 25 183 8.0 17.7 0.00 0.13 0.00 84 1012.4
20260903124325 25 185 8.0 17.7 0.00 0.13 0.00 84 1015.4
20260903124050 25 189 9.7 17.7 0.00 0.13 0.00 84 1012.3
20260903123824 25 187 9.7 16.1 0.00 0.13 0.00 84 1015.4
20260903123542 25 185 9.7 14.5 0.00 0.13 0.00 84 1012.2
20260903123323 25 166 9.7 14.5 0.00 0.13 0.00 84 1015.4
20260903123037 25 187 8.0 14.5 0.00 0.13 0.00 84 1012.1
20260903122821 25 189 8.0 14.5 0.00 0.13 0.00 84 1015.2
20260903122531 25 185 6.4 12.9 0.00 0.13 0.00 84 1012.1
20260903122338 25 180 6.4 12.9 0.00 0.13 0.00 84 1015.2
20260903122017 25 180 8.0 12.9 0.00 0.13 0.00 84 1012.1
20260903121831 25 168 9.7 14.5 0.00 0.13 0.00 84 1015.2
20260903121506 25 152 8.0 14.5 0.00 0.13 0.00 84 1012.1
20260903121330 25 159 8.0 14.5 0.00 0.13 0.00 84 1015.1
20260903121056 25 179 6.4 14.5 0.00 0.13 0.00 84 1012.1
20260903120829 25 166 9.7 14.5 0.00 0.13 0.00 84 1015.2
20260903120549 25 168 9.7 14.5 0.00 0.13 0.00 84 1012.1
20260903120327 25 184 11.3 14.5 0.00 0.13 0.00 84 1015.0
20260903120049 25 160 8.0 12.9 0.00 0.13 0.00 84 1012.0
20260903115844 25 184 8.0 12.9 0.00 0.13 0.00 83 1015.0
20260903115505 25 185 8.0 12.9 0.00 0.13 0.00 83 1012.0
20260903115320 25 190 8.0 12.9 0.00 0.13 0.00 83 1015.1
20260903115102 25 190 8.0 12.9 0.00 0.13 0.00 83 1012.0
20260903114840 25 162 9.7 12.9 0.00 0.13 0.00 83 1015.1
20260903114550 25 158 8.0 11.3 0.00 0.13 0.00 83 1012.0
20260903114332 25 169 8.0 9.7 0.00 0.13 0.00 83 1015.1
20260903114040 25 178 6.4 11.3 0.00 0.13 0.00 83 1012.0
20260903113829 25 159 9.7 11.3 0.00 0.13 0.00 83 1015.1
20260903113532 25 165 4.8 12.9 0.00 0.13 0.00 83 1012.0
20260903113327 25 172 8.0 11.3 0.00 0.13 0.00 83 1014.9
20260903113015 25 192 8.0 11.3 0.00 0.13 0.00 82 1011.9
20260903112824 25 195 8.0 11.3 0.00 0.13 0.00 82 1014.9
20260903112507 25 197 6.4 12.9 0.00 0.13 0.00 82 1011.8
20260903112322 25 187 6.4 12.9 0.00 0.13 0.00 82 1014.9
20260903112003 25 200 8.0 12.9 0.00 0.13 0.00 82 1011.9
20260903111840 25 208 6.4 12.9 0.00 0.13 0.00 82 1014.8
20260903111608 25 193 6.4 11.3 0.00 0.13 0.00 82 1011.8
20260903111331 25 193 6.4 11.3 0.00 0.13 0.00 82 1014.9
20260903111056 25 194 6.4 11.3 0.00 0.13 0.00 82 1011.9
20260903110829 25 198 8.0 11.3 0.00 0.13 0.00 82 1014.9
20260903110548 25 183 4.8 8.0 0.00 0.13 0.00 81 1011.8
20260903110326 25 183 4.8 9.7 0.00 0.13 0.00 81 1014.8
20260903110041 25 183 4.8 9.7 0.00 0.13 0.00 81 1011.7
20260903105824 25 183 4.8 9.7 0.00 0.13 0.00 81 1014.7
20260903105535 25 183 3.2 9.7 0.00 0.13 0.00 81 1011.7
20260903105322 25 183 4.8 9.7 0.00 0.13 0.00 81 1014.8
20260903105024 25 183 4.8 9.7 0.00 0.13 0.00 81 1011.7
20260903104840 25 183 4.8 9.7 0.00 0.13 0.00 81 1014.8
20260903104516 25 203 4.8 9.7 0.00 0.13 0.00 81 1011.7
20260903104331 25 197 4.8 9.7 0.00 0.13 0.00 81 1014.7